Location: Newark
(47.3000°N, 8.0500°E)
Time: 15:06:49
(UTC+00:00)

Falcon 9 debris - Visible Passes

Search period start: 21 July 2019 00:00
Search period end: 31 July 2019 00:00
Orbit: 431 x 439 km, 53.0° (Epoch: 21 July)

Date Brightness Start Highest point End Pass type
(mag) Time Alt. Az. Time Alt. Az. Time Alt. Az.
21 Jul 4.3 01:31:05 17° W 01:33:22 41° NNW 01:36:40 10° ENE visible
21 Jul 5.0 03:07:50 10° WNW 03:10:57 31° N 03:14:04 10° ENE visible
21 Jul 5.7 23:16:46 13° ENE 23:16:46 13° ENE 23:17:15 10° ENE visible
22 Jul 3.9 00:50:02 36° WNW 00:51:02 50° NNW 00:54:25 10° ENE visible
22 Jul 5.0 02:25:28 10° WNW 02:28:34 30° N 02:31:40 10° ENE visible
23 Jul 3.5 00:08:55 62° N 00:08:55 62° N 00:12:09 10° ENE visible
23 Jul 5.0 01:43:03 10° WNW 01:46:11 31° N 01:49:18 10° ENE visible
23 Jul 4.4 23:27:45 35° ENE 23:27:45 35° ENE 23:29:55 10° ENE visible
24 Jul 4.8 01:01:00 12° WNW 01:03:47 33° N 01:06:58 10° ENE visible
24 Jul 4.8 02:38:10 10° WNW 02:41:24 36° NNE 02:44:38 10° E visible
24 Jul 5.2 22:46:29 19° ENE 22:46:29 19° ENE 22:47:37 10° ENE visible
25 Jul 4.6 00:19:44 22° WNW 00:21:25 36° NNW 00:24:40 10° ENE visible
25 Jul 4.9 01:55:51 10° WNW 01:59:02 32° N 02:02:11 10° ENE visible
25 Jul 5.7 22:05:03 12° ENE 22:05:03 12° ENE 22:05:18 10° ENE visible
25 Jul 4.3 23:38:16 35° NW 23:39:04 42° NNW 23:42:22 10° ENE visible
26 Jul 5.0 01:13:31 10° WNW 01:16:38 31° N 01:19:45 10° ENE visible
26 Jul 3.6 02:50:39 10° WNW 02:54:06 64° NNE 02:57:31 10° ESE visible
26 Jul 3.9 22:56:18 47° NW 22:56:43 51° NNW 23:00:06 10° ENE visible
27 Jul 5.1 00:31:09 10° WNW 00:34:15 30° N 00:37:21 10° ENE visible
27 Jul 4.1 02:08:24 10° WNW 02:11:47 50° NNE 02:15:08 10° E visible
27 Jul 4.2 20:34:44 10° SSW 20:37:35 24° SE 20:40:26 10° E visible
27 Jul 3.4 22:10:57 10° WSW 22:14:24 65° NNW 22:17:50 10° ENE visible
27 Jul 5.0 23:48:43 10° WNW 23:51:50 31° N 23:54:58 10° ENE visible
28 Jul 4.5 01:26:08 10° WNW 01:29:26 41° NNE 01:32:43 10° E visible
28 Jul 3.3 03:03:11 10° WNW 03:06:33 50° SW 03:09:53 10° SE visible
28 Jul 4.7 19:53:09 10° S 19:55:27 17° SE 19:57:47 10° E visible
28 Jul 3.0 21:28:38 10° WSW 21:32:06 86° NNW 21:35:34 10° ENE visible
28 Jul 4.9 23:06:17 10° WNW 23:09:27 33° N 23:12:37 10° ENE visible
29 Jul 4.7 00:43:50 10° WNW 00:47:04 36° NNE 00:50:17 10° E visible
29 Jul 3.0 02:20:52 10° WNW 02:24:18 72° SSW 02:27:44 10° SE visible
29 Jul 3.0 20:46:23 10° SW 20:49:50 69° SSE 20:53:17 10° ENE visible
29 Jul 4.7 22:23:50 10° W 22:27:04 36° NNW 22:30:18 10° ENE visible
30 Jul 4.9 00:01:30 10° WNW 00:04:40 32° N 00:07:50 10° ENE visible
30 Jul 3.1 01:38:34 10° WNW 01:42:02 83° NNE 01:45:29 10° ESE visible
30 Jul 4.6 03:16:18 10° W 03:18:42 18° SW 03:21:05 10° S visible
30 Jul 3.3 20:04:15 10° SW 20:07:35 48° SE 20:10:57 10° ENE visible
30 Jul 4.4 21:41:23 10° W 21:44:42 42° NNW 21:48:01 10° ENE visible
30 Jul 5.0 23:19:09 10° WNW 23:22:16 31° N 23:25:23 10° ENE visible
